| time (UTC) | temp C | wind direction | speed KPH | gust KPH | rain 1hr cm | rain 24hr cm | rain mn cm | humidity % | barometer mb |
| 20260508064628 | 11 | 9 | 0.0 | 1.6 | 0.00 | 0.00 | 0.00 | 66 | 1017.7 |
| 20260508063629 | 11 | 127 | 1.6 | 4.8 | 0.00 | 0.00 | 0.00 | 63 | 1017.7 |
| 20260508062708 | 12 | 0.0 | 0.0 | 0.00 | 0.00 | 0.00 | 62 | 1017.7 | |
| 20260508061628 | 13 | 167 | 3.2 | 4.8 | 0.00 | 0.00 | 0.00 | 57 | 1017.6 |
| 20260508060628 | 15 | 219 | 1.6 | 3.2 | 0.00 | 0.00 | 0.00 | 54 | 1017.5 |
| 20260508055648 | 15 | 22 | 0.0 | 4.8 | 0.00 | 0.00 | 0.00 | 53 | 1017.3 |
| 20260508054628 | 15 | 12 | 1.6 | 8.0 | 0.00 | 0.00 | 0.00 | 54 | 1017.3 |
| 20260508053628 | 16 | 200 | 3.2 | 11.3 | 0.00 | 0.00 | 0.00 | 53 | 1017.3 |
| 20260508052648 | 16 | 345 | 3.2 | 12.9 | 0.00 | 0.00 | 0.00 | 54 | 1017.2 |
| 20260508051648 | 16 | 55 | 3.2 | 11.3 | 0.00 | 0.00 | 0.00 | 54 | 1017.1 |
| 20260508050628 | 16 | 39 | 4.8 | 12.9 | 0.00 | 0.00 | 0.00 | 54 | 1017.1 |
| 20260508045628 | 17 | 305 | 6.4 | 14.5 | 0.00 | 0.00 | 0.00 | 53 | 1017.1 |
| 20260508044628 | 17 | 27 | 3.2 | 11.3 | 0.00 | 0.00 | 0.00 | 50 | 1017.1 |
| 20260508043628 | 17 | 14 | 1.6 | 6.4 | 0.00 | 0.00 | 0.00 | 49 | 1017.1 |
| 20260508042628 | 17 | 20 | 3.2 | 6.4 | 0.00 | 0.00 | 0.00 | 44 | 1017.0 |
| 20260508041628 | 18 | 33 | 3.2 | 9.7 | 0.00 | 0.00 | 0.00 | 44 | 1017.0 |
| 20260508040628 | 17 | 356 | 1.6 | 4.8 | 0.00 | 0.00 | 0.00 | 44 | 1017.0 |
| 20260508035628 | 17 | 0.0 | 1.6 | 0.00 | 0.00 | 0.00 | 39 | 1016.9 | |
| 20260508034629 | 18 | 334 | 1.6 | 6.4 | 0.00 | 0.00 | 0.00 | 38 | 1016.7 |
| 20260508033648 | 18 | 273 | 1.6 | 6.4 | 0.00 | 0.00 | 0.00 | 37 | 1016.6 |
| 20260508032629 | 18 | 96 | 4.8 | 16.1 | 0.00 | 0.00 | 0.00 | 36 | 1016.5 |
| 20260508031749 | 19 | 278 | 4.8 | 12.9 | 0.00 | 0.00 | 0.00 | 37 | 1016.4 |
| 20260508030630 | 20 | 241 | 8.0 | 19.3 | 0.00 | 0.00 | 0.00 | 37 | 1016.3 |
| 20260508025629 | 20 | 228 | 6.4 | 14.5 | 0.00 | 0.00 | 0.00 | 37 | 1016.2 |
| 20260508024648 | 21 | 184 | 8.0 | 14.5 | 0.00 | 0.00 | 0.00 | 37 | 1016.0 |
| 20260508023629 | 21 | 239 | 8.0 | 14.5 | 0.00 | 0.00 | 0.00 | 37 | 1016.1 |
| 20260508022629 | 21 | 271 | 6.4 | 14.5 | 0.00 | 0.00 | 0.00 | 38 | 1016.0 |
| 20260508021629 | 21 | 164 | 6.4 | 11.3 | 0.00 | 0.00 | 0.00 | 37 | 1015.9 |
| 20260508020628 | 22 | 188 | 6.4 | 14.5 | 0.00 | 0.00 | 0.00 | 36 | 1015.9 |
| 20260508015629 | 22 | 244 | 4.8 | 14.5 | 0.00 | 0.00 | 0.00 | 39 | 1015.9 |
| 20260508014629 | 22 | 220 | 9.7 | 17.7 | 0.00 | 0.00 | 0.00 | 36 | 1015.8 |
| 20260508013628 | 23 | 203 | 4.8 | 12.9 | 0.00 | 0.00 | 0.00 | 37 | 1015.9 |
| 20260508012629 | 24 | 184 | 4.8 | 12.9 | 0.00 | 0.00 | 0.00 | 34 | 1015.8 |
| 20260508011649 | 23 | 352 | 6.4 | 19.3 | 0.00 | 0.00 | 0.00 | 35 | 1015.8 |
| 20260508010628 | 24 | 176 | 8.0 | 19.3 | 0.00 | 0.00 | 0.00 | 32 | 1016.0 |
| 20260508005629 | 25 | 154 | 8.0 | 17.7 | 0.00 | 0.00 | 0.00 | 32 | 1015.9 |
| 20260508004629 | 25 | 176 | 6.4 | 14.5 | 0.00 | 0.00 | 0.00 | 32 | 1015.9 |
| 20260508003628 | 24 | 204 | 8.0 | 16.1 | 0.00 | 0.00 | 0.00 | 32 | 1015.8 |
| 20260508002631 | 25 | 206 | 8.0 | 19.3 | 0.00 | 0.00 | 0.00 | 31 | 1015.8 |
| 20260508001628 | 24 | 253 | 11.3 | 20.9 | 0.00 | 0.00 | 0.00 | 32 | 1015.8 |
| 20260508000629 | 25 | 151 | 12.9 | 22.5 | 0.00 | 0.00 | 0.00 | 32 | 1015.6 |
| 20260507235628 | 25 | 203 | 9.7 | 20.9 | 0.00 | 0.00 | 0.00 | 32 | 1015.6 |
| 20260507234649 | 25 | 275 | 6.4 | 19.3 | 0.00 | 0.00 | 0.00 | 33 | 1015.6 |
| 20260507233629 | 25 | 210 | 8.0 | 17.7 | 0.00 | 0.00 | 0.00 | 33 | 1015.6 |
| 20260507232629 | 25 | 268 | 11.3 | 20.9 | 0.00 | 0.00 | 0.00 | 31 | 1015.6 |
| 20260507231629 | 26 | 268 | 8.0 | 17.7 | 0.00 | 0.00 | 0.00 | 32 | 1015.6 |
| 20260507230649 | 26 | 239 | 6.4 | 14.5 | 0.00 | 0.00 | 0.00 | 32 | 1015.7 |
| 20260507225629 | 26 | 323 | 8.0 | 14.5 | 0.00 | 0.00 | 0.00 | 33 | 1015.8 |
| 20260507224649 | 26 | 216 | 9.7 | 20.9 | 0.00 | 0.00 | 0.00 | 33 | 1015.9 |
| 20260507223649 | 26 | 156 | 9.7 | 20.9 | 0.00 | 0.00 | 0.00 | 31 | 1016.0 |
| 20260507222709 | 25 | 184 | 9.7 | 22.5 | 0.00 | 0.00 | 0.00 | 34 | 1016.0 |
| 20260507221649 | 26 | 241 | 8.0 | 17.7 | 0.00 | 0.00 | 0.00 | 32 | 1016.1 |
| 20260507220649 | 26 | 250 | 8.0 | 17.7 | 0.00 | 0.00 | 0.00 | 33 | 1016.2 |
| 20260507215629 | 25 | 196 | 11.3 | 16.1 | 0.00 | 0.00 | 0.00 | 33 | 1016.3 |
| 20260507214649 | 26 | 18 | 9.7 | 22.5 | 0.00 | 0.00 | 0.00 | 33 | 1016.4 |
| 20260507213629 | 26 | 245 | 8.0 | 16.1 | 0.00 | 0.00 | 0.00 | 33 | 1016.4 |
| 20260507212629 | 26 | 292 | 4.8 | 16.1 | 0.00 | 0.00 | 0.00 | 33 | 1016.4 |
| 20260507211629 | 26 | 246 | 6.4 | 14.5 | 0.00 | 0.00 | 0.00 | 34 | 1016.4 |
| 20260507210629 | 25 | 238 | 4.8 | 11.3 | 0.00 | 0.00 | 0.00 | 33 | 1016.5 |
| 20260507205629 | 25 | 250 | 8.0 | 20.9 | 0.00 | 0.00 | 0.00 | 33 | 1016.6 |
| 20260507204629 | 25 | 227 | 6.4 | 14.5 | 0.00 | 0.00 | 0.00 | 31 | 1016.8 |
| 20260507203629 | 25 | 117 | 6.4 | 17.7 | 0.00 | 0.00 | 0.00 | 30 | 1016.9 |
| 20260507202630 | 25 | 226 | 8.0 | 16.1 | 0.00 | 0.00 | 0.00 | 32 | 1017.0 |
| 20260507201629 | 23 | 248 | 8.0 | 19.3 | 0.00 | 0.00 | 0.00 | 33 | 1017.0 |
| 20260507200629 | 23 | 134 | 1.6 | 9.7 | 0.00 | 0.00 | 0.00 | 35 | 1017.2 |
| 20260507195629 | 23 | 33 | 6.4 | 12.9 | 0.00 | 0.00 | 0.00 | 36 | 1017.4 |
| 20260507194649 | 22 | 153 | 9.7 | 16.1 | 0.00 | 0.00 | 0.00 | 38 | 1017.5 |
| 20260507193629 | 22 | 170 | 6.4 | 16.1 | 0.00 | 0.00 | 0.00 | 40 | 1017.6 |
| 20260507192629 | 22 | 10 | 4.8 | 14.5 | 0.00 | 0.00 | 0.00 | 43 | 1017.8 |
| 20260507191629 | 22 | 108 | 3.2 | 11.3 | 0.00 | 0.00 | 0.00 | 43 | 1017.9 |
| 20260507190629 | 21 | 4 | 4.8 | 9.7 | 0.00 | 0.00 | 0.00 | 43 | 1018.0 |
| 20260507185629 | 21 | 64 | 3.2 | 9.7 | 0.00 | 0.00 | 0.00 | 45 | 1018.1 |
| 20260507184629 | 21 | 188 | 3.2 | 6.4 | 0.00 | 0.00 | 0.00 | 47 | 1018.2 |
| 20260507183629 | 21 | 151 | 4.8 | 9.7 | 0.00 | 0.00 | 0.00 | 47 | 1018.3 |
| 20260507182630 | 20 | 5 | 3.2 | 8.0 | 0.00 | 0.00 | 0.00 | 48 | 1018.4 |
| 20260507181629 | 20 | 55 | 4.8 | 11.3 | 0.00 | 0.00 | 0.00 | 49 | 1018.5 |
| 20260507180629 | 20 | 27 | 4.8 | 12.9 | 0.00 | 0.00 | 0.00 | 49 | 1018.6 |
| 20260507175629 | 20 | 22 | 0.0 | 3.2 | 0.00 | 0.00 | 0.00 | 50 | 1018.7 |
| 20260507174629 | 19 | 101 | 3.2 | 9.7 | 0.00 | 0.00 | 0.00 | 51 | 1018.9 |
| 20260507173629 | 18 | 151 | 3.2 | 9.7 | 0.00 | 0.00 | 0.00 | 53 | 1019.0 |
| 20260507172630 | 18 | 171 | 1.6 | 8.0 | 0.00 | 0.00 | 0.00 | 54 | 1019.0 |
| 20260507171630 | 18 | 146 | 4.8 | 9.7 | 0.00 | 0.00 | 0.00 | 54 | 1019.0 |
| 20260507170630 | 18 | 163 | 3.2 | 8.0 | 0.00 | 0.00 | 0.00 | 57 | 1019.0 |
| 20260507165652 | 17 | 168 | 4.8 | 11.3 | 0.00 | 0.00 | 0.00 | 60 | 1019.1 |
| 20260507164649 | 17 | 0.0 | 3.2 | 0.00 | 0.00 | 0.00 | 59 | 1019.1 | |
| 20260507163630 | 16 | 136 | 3.2 | 8.0 | 0.00 | 0.00 | 0.00 | 62 | 1019.1 |
| 20260507162629 | 16 | 197 | 3.2 | 9.7 | 0.00 | 0.00 | 0.00 | 64 | 1019.1 |
| 20260507161630 | 15 | 187 | 3.2 | 6.4 | 0.00 | 0.00 | 0.00 | 66 | 1019.2 |
| 20260507160629 | 15 | 150 | 4.8 | 8.0 | 0.00 | 0.00 | 0.00 | 67 | 1019.3 |
| 20260507155629 | 15 | 181 | 1.6 | 4.8 | 0.00 | 0.00 | 0.00 | 69 | 1019.4 |
| 20260507154630 | 14 | 303 | 1.6 | 3.2 | 0.00 | 0.00 | 0.00 | 70 | 1019.4 |
| 20260507153630 | 13 | 192 | 0.0 | 4.8 | 0.00 | 0.00 | 0.00 | 71 | 1019.5 |
| 20260507152629 | 13 | 207 | 3.2 | 6.4 | 0.00 | 0.00 | 0.00 | 73 | 1019.5 |
| 20260507151629 | 13 | 161 | 1.6 | 6.4 | 0.00 | 0.00 | 0.00 | 73 | 1019.6 |
| 20260507150630 | 12 | 118 | 1.6 | 6.4 | 0.00 | 0.00 | 0.00 | 76 | 1019.6 |
| 20260507145630 | 12 | 0.0 | 1.6 | 0.00 | 0.00 | 0.00 | 79 | 1019.6 | |
| 20260507144630 | 12 | 196 | 3.2 | 4.8 | 0.00 | 0.00 | 0.00 | 80 | 1019.6 |
| 20260507143650 | 11 | 148 | 1.6 | 4.8 | 0.00 | 0.00 | 0.00 | 82 | 1019.6 |
| 20260507142630 | 11 | 229 | 1.6 | 6.4 | 0.00 | 0.00 | 0.00 | 82 | 1019.5 |
| 20260507141629 | 10 | 173 | 0.0 | 3.2 | 0.00 | 0.00 | 0.00 | 85 | 1019.5 |
| 20260507140630 | 10 | 152 | 3.2 | 9.7 | 0.00 | 0.00 | 0.00 | 86 | 1019.4 |
| 20260507135629 | 8 | 0.0 | 0.0 | 0.00 | 0.00 | 0.00 | 87 | 1019.4 | |
| 20260507134630 | 8 | 177 | 1.6 | 3.2 | 0.00 | 0.00 | 0.00 | 89 | 1019.3 |
| 20260507133630 | 7 | 181 | 0.0 | 3.2 | 0.00 | 0.00 | 0.00 | 88 | 1019.2 |
| 20260507132631 | 8 | 117 | 0.0 | 4.8 | 0.00 | 0.00 | 0.00 | 85 | 1019.2 |
| 20260507131630 | 7 | 266 | 1.6 | 4.8 | 0.00 | 0.00 | 0.00 | 92 | 1019.0 |
| 20260507130630 | 6 | 211 | 1.6 | 4.8 | 0.00 | 0.00 | 0.00 | 93 | 1019.2 |
| 20260507125629 | 6 | 0.0 | 0.0 | 0.00 | 0.00 | 0.00 | 91 | 1019.1 | |
| 20260507124630 | 6 | 148 | 0.0 | 3.2 | 0.00 | 0.00 | 0.00 | 94 | 1019.0 |
| 20260507123629 | 6 | 0.0 | 0.0 | 0.00 | 0.00 | 0.00 | 93 | 1018.9 | |
| 20260507122630 | 7 | 0.0 | 1.6 | 0.00 | 0.00 | 0.00 | 92 | 1018.8 | |
| 20260507121630 | 7 | 0.0 | 0.0 | 0.00 | 0.00 | 0.00 | 92 | 1018.8 | |
| 20260507120630 | 7 | 0.0 | 0.0 | 0.00 | 0.00 | 0.00 | 92 | 1018.9 | |
| 20260507115650 | 7 | 0.0 | 0.0 | 0.00 | 0.00 | 0.00 | 91 | 1018.9 | |
| 20260507114630 | 7 | 0.0 | 0.0 | 0.00 | 0.00 | 0.00 | 90 | 1018.9 | |
| 20260507113650 | 7 | 272 | 0.0 | 3.2 | 0.00 | 0.00 | 0.00 | 90 | 1018.9 |
| 20260507112630 | 8 | 0.0 | 0.0 | 0.00 | 0.00 | 0.00 | 89 | 1019.0 | |
| 20260507111650 | 8 | 18 | 0.0 | 3.2 | 0.00 | 0.00 | 0.00 | 85 | 1018.9 |
| 20260507110650 | 9 | 0.0 | 0.0 | 0.00 | 0.00 | 0.00 | 84 | 1018.9 | |
| 20260507105630 | 10 | 0.0 | 0.0 | 0.00 | 0.00 | 0.00 | 82 | 1018.9 | |
| 20260507104630 | 10 | 0.0 | 1.6 | 0.00 | 0.00 | 0.00 | 80 | 1018.9 | |
| 20260507103630 | 10 | 82 | 0.0 | 3.2 | 0.00 | 0.00 | 0.00 | 81 | 1018.9 |
| 20260507102630 | 9 | 183 | 1.6 | 8.0 | 0.00 | 0.00 | 0.00 | 84 | 1019.0 |
| 20260507101630 | 10 | 202 | 1.6 | 4.8 | 0.00 | 0.00 | 0.00 | 84 | 1019.0 |
| 20260507100630 | 10 | 0.0 | 0.0 | 0.00 | 0.00 | 0.00 | 81 | 1019.0 | |
| 20260507095652 | 11 | 0.0 | 1.6 | 0.00 | 0.00 | 0.00 | 79 | 1019.0 | |
| 20260507094630 | 11 | 0.0 | 1.6 | 0.00 | 0.00 | 0.00 | 81 | 1019.1 | |
| 20260507093630 | 11 | 184 | 1.6 | 4.8 | 0.00 | 0.00 | 0.00 | 81 | 1018.9 |
| 20260507092650 | 10 | 0.0 | 1.6 | 0.00 | 0.00 | 0.00 | 84 | 1019.0 | |
| 20260507091630 | 11 | 198 | 0.0 | 3.2 | 0.00 | 0.00 | 0.00 | 81 | 1019.0 |
| 20260507090730 | 11 | 0.0 | 0.0 | 0.00 | 0.00 | 0.00 | 81 | 1019.0 | |
| 20260507085650 | 11 | 0.0 | 0.0 | 0.00 | 0.00 | 0.00 | 79 | 1019.2 | |
| 20260507084631 | 11 | 0.0 | 0.0 | 0.00 | 0.00 | 0.00 | 79 | 1019.2 | |
| 20260507083630 | 12 | 0.0 | 0.0 | 0.00 | 0.00 | 0.00 | 75 | 1019.2 | |
| 20260507082630 | 13 | 0.0 | 0.0 | 0.00 | 0.00 | 0.00 | 73 | 1019.1 | |
| 20260507081630 | 14 | 154 | 3.2 | 9.7 | 0.00 | 0.00 | 0.00 | 71 | 1019.1 |
| 20260507080630 | 15 | 290 | 1.6 | 4.8 | 0.00 | 0.00 | 0.00 | 72 | 1019.1 |
| 20260507075631 | 14 | 31 | 0.0 | 3.2 | 0.00 | 0.00 | 0.00 | 73 | 1019.2 |
| 20260507074630 | 13 | 188 | 3.2 | 8.0 | 0.00 | 0.00 | 0.00 | 72 | 1019.3 |
| 20260507073630 | 13 | 196 | 0.0 | 3.2 | 0.00 | 0.00 | 0.00 | 71 | 1019.4 |
| 20260507072650 | 15 | 263 | 0.0 | 4.8 | 0.00 | 0.00 | 0.00 | 68 | 1019.3 |
| 20260507071630 | 15 | 150 | 3.2 | 8.0 | 0.00 | 0.00 | 0.00 | 65 | 1019.3 |
| 20260507070630 | 15 | 0.0 | 1.6 | 0.00 | 0.00 | 0.00 | 66 | 1019.4 | |
| 20260507065630 | 15 | 142 | 1.6 | 6.4 | 0.00 | 0.00 | 0.00 | 66 | 1019.5 |